Location: Newark
(44.9684°N, 1.0319°E)
Time: 08:35:39
(UTC+00:00)

Tiangong 2 - Pass Details

Date: 19 July 2019
Orbit: 185 x 376 km, 42.8° (Epoch: 19 July)

Event Time Altitude Azimuth Distance (km) Brightness Sun altitude
Rises 21:38:11 0° 270° (W) 2,226 5.4 -16.5°
Reaches altitude 10° 21:40:57 10° 244° (WSW) 1,365 3.9 -16.8°
Enters shadow 21:42:03 13° 224° (SW) 1,178 3.4 -16.9°
